| time (UTC) | temp C | wind direction | speed KPH | gust KPH | rain 1hr cm | rain 24hr cm | rain mn cm | humidity % | barometer mb |
| 20260502195503 | 15 | 159 | 3.2 | 9.7 | 0.00 | 0.00 | 0.00 | 18 | 1013.8 |
| 20260502195003 | 15 | 168 | 8.0 | 20.9 | 0.00 | 0.00 | 0.00 | 18 | 1014.2 |
| 20260502194504 | 16 | 141 | 8.0 | 12.9 | 0.00 | 0.00 | 0.00 | 19 | 1014.2 |
| 20260502194003 | 16 | 177 | 8.0 | 19.3 | 0.00 | 0.00 | 0.00 | 19 | 1014.3 |
| 20260502193504 | 16 | 107 | 9.7 | 19.3 | 0.00 | 0.00 | 0.00 | 19 | 1014.2 |
| 20260502193003 | 16 | 119 | 16.1 | 25.7 | 0.00 | 0.00 | 0.00 | 19 | 1014.2 |
| 20260502192504 | 16 | 134 | 6.4 | 22.5 | 0.00 | 0.00 | 0.00 | 19 | 1014.2 |
| 20260502191503 | 16 | 112 | 11.3 | 24.1 | 0.00 | 0.00 | 0.00 | 18 | 1014.3 |
| 20260502191004 | 16 | 45 | 11.3 | 20.9 | 0.00 | 0.00 | 0.00 | 20 | 1014.5 |
| 20260502190504 | 16 | 349 | 8.0 | 19.3 | 0.00 | 0.00 | 0.00 | 16 | 1014.8 |
| 20260502190004 | 16 | 81 | 4.8 | 9.7 | 0.00 | 0.00 | 0.00 | 14 | 1014.9 |
| 20260502185503 | 16 | 31 | 12.9 | 20.9 | 0.00 | 0.00 | 0.00 | 15 | 1014.9 |
| 20260502185003 | 16 | 36 | 8.0 | 14.5 | 0.00 | 0.00 | 0.00 | 14 | 1015.0 |
| 20260502184003 | 16 | 65 | 1.6 | 11.3 | 0.00 | 0.00 | 0.00 | 12 | 1015.1 |
| 20260502183504 | 16 | 342 | 4.8 | 11.3 | 0.00 | 0.00 | 0.00 | 15 | 1015.1 |
| 20260502182504 | 15 | 347 | 8.0 | 11.3 | 0.00 | 0.00 | 0.00 | 11 | 1015.3 |
| 20260502182003 | 15 | 328 | 1.6 | 8.0 | 0.00 | 0.00 | 0.00 | 14 | 1015.4 |
| 20260502180503 | 15 | 122 | 4.8 | 14.5 | 0.00 | 0.00 | 0.00 | 14 | 1015.5 |
| 20260502170504 | 13 | 89 | 3.2 | 9.7 | 0.00 | 0.05 | 0.00 | 21 | 1016.3 |
| 20260502164003 | 11 | 228 | 4.8 | 12.9 | 0.00 | 0.08 | 0.00 | 21 | 1017.3 |
| 20260502163504 | 11 | 166 | 3.2 | 11.3 | 0.00 | 0.08 | 0.00 | 21 | 1017.3 |
| 20260502162003 | 11 | 129 | 3.2 | 14.5 | 0.00 | 0.10 | 0.00 | 23 | 1017.3 |
| 20260502161503 | 11 | 155 | 4.8 | 9.7 | 0.00 | 0.10 | 0.00 | 23 | 1017.4 |
| 20260502161004 | 11 | 137 | 8.0 | 14.5 | 0.00 | 0.10 | 0.00 | 22 | 1017.3 |
| 20260502160504 | 11 | 137 | 8.0 | 19.3 | 0.00 | 0.10 | 0.00 | 24 | 1017.3 |
| 20260502152004 | 9 | 177 | 3.2 | 4.8 | 0.00 | 0.18 | 0.00 | 31 | 1017.3 |
| 20260502151503 | 8 | 130 | 1.6 | 3.2 | 0.00 | 0.18 | 0.00 | 35 | 1017.2 |
| 20260502150504 | 7 | 86 | 1.6 | 4.8 | 0.00 | 0.20 | 0.00 | 37 | 1017.4 |
| 20260502130504 | -1 | 27 | 0.0 | 0.0 | 0.00 | 0.25 | 0.00 | 75 | 1019.0 |
| 20260502123504 | -5 | 27 | 0.0 | 1.6 | 0.00 | 0.25 | 0.00 | 86 | 1018.6 |
| 20260502123004 | -5 | 27 | 1.6 | 4.8 | 0.00 | 0.25 | 0.00 | 86 | 1018.7 |
| 20260502122503 | -5 | 27 | 0.0 | 3.2 | 0.00 | 0.25 | 0.00 | 83 | 1018.7 |
| 20260502122003 | -5 | 27 | 1.6 | 3.2 | 0.00 | 0.25 | 0.00 | 83 | 1018.6 |
| 20260502121504 | -5 | 27 | 1.6 | 3.2 | 0.00 | 0.25 | 0.00 | 83 | 1018.7 |
| 20260502120504 | -5 | 325 | 0.0 | 0.0 | 0.00 | 0.25 | 0.00 | 82 | 1018.7 |
| 20260502115504 | -5 | 325 | 3.2 | 8.0 | 0.00 | 0.25 | 0.00 | 82 | 1018.6 |
| 20260502114504 | -5 | 325 | 0.0 | 0.0 | 0.00 | 0.25 | 0.00 | 81 | 1018.6 |
| 20260502114004 | -5 | 325 | 0.0 | 0.0 | 0.00 | 0.25 | 0.00 | 81 | 1018.7 |
| 20260502113503 | -5 | 325 | 3.2 | 8.0 | 0.00 | 0.25 | 0.00 | 81 | 1018.7 |
| 20260502113004 | -5 | 325 | 0.0 | 4.8 | 0.00 | 0.25 | 0.00 | 81 | 1018.6 |
| 20260502112503 | -5 | 325 | 1.6 | 4.8 | 0.00 | 0.25 | 0.00 | 81 | 1018.7 |
| 20260502112003 | -5 | 325 | 3.2 | 4.8 | 0.00 | 0.25 | 0.00 | 81 | 1018.7 |
| 20260502111004 | -5 | 325 | 1.6 | 9.7 | 0.00 | 0.25 | 0.00 | 81 | 1018.7 |
| 20260502110504 | -5 | 325 | 3.2 | 8.0 | 0.00 | 0.25 | 0.00 | 82 | 1018.7 |
| 20260502110004 | -5 | 325 | 0.0 | 0.0 | 0.00 | 0.25 | 0.00 | 81 | 1018.7 |
| 20260502105504 | -5 | 325 | 0.0 | 4.8 | 0.00 | 0.25 | 0.00 | 81 | 1018.7 |
| 20260502105004 | -5 | 325 | 0.0 | 4.8 | 0.00 | 0.25 | 0.00 | 81 | 1018.8 |
| 20260502104003 | -5 | 325 | 1.6 | 3.2 | 0.00 | 0.25 | 0.00 | 81 | 1018.8 |
| 20260502103504 | -5 | 325 | 0.0 | 0.0 | 0.00 | 0.25 | 0.00 | 81 | 1018.8 |
| 20260502103003 | -5 | 325 | 0.0 | 4.8 | 0.00 | 0.25 | 0.00 | 81 | 1018.8 |
| 20260502102504 | -5 | 325 | 4.8 | 4.8 | 0.00 | 0.25 | 0.00 | 81 | 1018.8 |
| 20260502102003 | -5 | 325 | 0.0 | 0.0 | 0.00 | 0.25 | 0.00 | 81 | 1018.6 |
| 20260502101503 | -5 | 325 | 1.6 | 4.8 | 0.00 | 0.25 | 0.00 | 80 | 1018.6 |
| 20260502101004 | -4 | 325 | 0.0 | 1.6 | 0.00 | 0.25 | 0.00 | 80 | 1018.6 |
| 20260502100504 | -4 | 325 | 1.6 | 4.8 | 0.00 | 0.25 | 0.00 | 80 | 1018.6 |
| 20260502091504 | -3 | 325 | 0.0 | 0.0 | 0.00 | 0.25 | 0.00 | 79 | 1018.5 |
| 20260502091003 | -3 | 325 | 0.0 | 0.0 | 0.00 | 0.25 | 0.00 | 79 | 1018.5 |
| 20260502090504 | -3 | 325 | 0.0 | 0.0 | 0.00 | 0.25 | 0.00 | 78 | 1018.5 |
| 20260502071503 | -2 | 325 | 0.0 | 4.8 | 0.00 | 0.25 | 0.00 | 70 | 1019.1 |
| 20260502071004 | -2 | 325 | 3.2 | 4.8 | 0.00 | 0.25 | 0.00 | 70 | 1019.1 |
| 20260502070504 | -2 | 325 | 1.6 | 3.2 | 0.00 | 0.25 | 0.00 | 70 | 1019.1 |
| 20260502070004 | -1 | 325 | 0.0 | 0.0 | 0.00 | 0.25 | 0.00 | 69 | 1019.1 |
| 20260502065503 | -1 | 325 | 0.0 | 0.0 | 0.00 | 0.25 | 0.00 | 69 | 1019.1 |
| 20260502065003 | -1 | 325 | 0.0 | 0.0 | 0.00 | 0.25 | 0.00 | 68 | 1019.1 |
| 20260502064504 | -1 | 325 | 0.0 | 1.6 | 0.00 | 0.25 | 0.00 | 67 | 1019.1 |
| 20260502064004 | -1 | 325 | 3.2 | 4.8 | 0.00 | 0.25 | 0.00 | 66 | 1019.1 |
| 20260502063504 | -1 | 325 | 1.6 | 4.8 | 0.00 | 0.25 | 0.00 | 66 | 1019.2 |
| 20260502063003 | -1 | 282 | 0.0 | 0.0 | 0.00 | 0.25 | 0.00 | 65 | 1019.2 |
| 20260502062504 | 0 | 282 | 0.0 | 0.0 | 0.00 | 0.25 | 0.00 | 64 | 1019.2 |
| 20260502061504 | 0 | 282 | 0.0 | 3.2 | 0.00 | 0.25 | 0.00 | 64 | 1019.1 |
| 20260502061004 | 0 | 282 | 3.2 | 4.8 | 0.00 | 0.25 | 0.00 | 63 | 1019.1 |
| 20260502060503 | 0 | 282 | 3.2 | 3.2 | 0.00 | 0.25 | 0.00 | 62 | 1019.1 |
| 20260502060004 | 0 | 282 | 3.2 | 4.8 | 0.00 | 0.25 | 0.00 | 61 | 1019.1 |
| 20260502055503 | 0 | 327 | 3.2 | 4.8 | 0.00 | 0.25 | 0.25 | 60 | 1019.1 |
| 20260502054504 | 0 | 327 | 3.2 | 4.8 | 0.00 | 0.25 | 0.25 | 60 | 1019.1 |
| 20260502054004 | 1 | 327 | 3.2 | 8.0 | 0.00 | 0.25 | 0.25 | 59 | 1018.9 |
| 20260502053003 | 1 | 230 | 0.0 | 4.8 | 0.00 | 0.25 | 0.25 | 58 | 1018.9 |
| 20260502052503 | 1 | 230 | 4.8 | 8.0 | 0.00 | 0.25 | 0.25 | 59 | 1018.9 |
| 20260502052003 | 1 | 243 | 6.4 | 9.7 | 0.00 | 0.25 | 0.25 | 58 | 1018.9 |
| 20260502051503 | 1 | 267 | 3.2 | 8.0 | 0.00 | 0.25 | 0.25 | 58 | 1019.0 |
| 20260502051004 | 1 | 267 | 3.2 | 4.8 | 0.00 | 0.25 | 0.25 | 59 | 1018.9 |
| 20260502050504 | 1 | 267 | 4.8 | 4.8 | 0.00 | 0.25 | 0.25 | 59 | 1018.9 |
| 20260502050003 | 1 | 267 | 0.0 | 3.2 | 0.00 | 0.25 | 0.25 | 57 | 1019.0 |
| 20260502045504 | 1 | 267 | 1.6 | 4.8 | 0.00 | 0.25 | 0.25 | 57 | 1019.0 |
| 20260502045004 | 1 | 267 | 3.2 | 4.8 | 0.00 | 0.25 | 0.25 | 56 | 1019.1 |
| 20260502044003 | 1 | 267 | 1.6 | 3.2 | 0.00 | 0.25 | 0.25 | 55 | 1019.1 |
| 20260502043504 | 1 | 267 | 3.2 | 4.8 | 0.00 | 0.25 | 0.25 | 55 | 1019.0 |
| 20260502042503 | 1 | 48 | 3.2 | 4.8 | 0.00 | 0.25 | 0.25 | 56 | 1019.0 |
| 20260502042003 | 1 | 48 | 0.0 | 3.2 | 0.00 | 0.25 | 0.25 | 54 | 1018.9 |
| 20260502041504 | 1 | 48 | 3.2 | 4.8 | 0.00 | 0.25 | 0.25 | 52 | 1018.9 |
| 20260502041004 | 2 | 48 | 0.0 | 0.0 | 0.00 | 0.25 | 0.25 | 52 | 1018.8 |
| 20260502040504 | 2 | 48 | 0.0 | 3.2 | 0.00 | 0.25 | 0.25 | 52 | 1018.7 |
| 20260502040004 | 2 | 48 | 1.6 | 4.8 | 0.00 | 0.25 | 0.25 | 52 | 1018.6 |
| 20260502035504 | 2 | 48 | 1.6 | 4.8 | 0.00 | 0.25 | 0.25 | 50 | 1018.7 |
| 20260502034504 | 3 | 287 | 3.2 | 4.8 | 0.00 | 0.25 | 0.25 | 48 | 1019.1 |
| 20260502034003 | 3 | 333 | 1.6 | 3.2 | 0.00 | 0.25 | 0.25 | 48 | 1019.1 |
| 20260502033503 | 3 | 333 | 0.0 | 3.2 | 0.00 | 0.25 | 0.25 | 44 | 1019.0 |
| 20260502033004 | 3 | 347 | 3.2 | 4.8 | 0.00 | 0.25 | 0.25 | 44 | 1018.8 |
| 20260502032503 | 3 | 356 | 0.0 | 1.6 | 0.00 | 0.25 | 0.25 | 44 | 1018.5 |
| 20260502032004 | 3 | 356 | 0.0 | 1.6 | 0.00 | 0.25 | 0.25 | 43 | 1018.1 |
| 20260502031503 | 4 | 356 | 1.6 | 3.2 | 0.00 | 0.25 | 0.25 | 45 | 1017.9 |
| 20260502031003 | 4 | 356 | 0.0 | 4.8 | 0.00 | 0.25 | 0.25 | 44 | 1017.9 |
| 20260502030503 | 4 | 356 | 4.8 | 4.8 | 0.00 | 0.25 | 0.25 | 41 | 1017.9 |
| 20260502030003 | 5 | 348 | 3.2 | 4.8 | 0.00 | 0.25 | 0.25 | 42 | 1017.9 |
| 20260502025003 | 5 | 54 | 1.6 | 4.8 | 0.00 | 0.25 | 0.25 | 40 | 1018.3 |
| 20260502024503 | 5 | 340 | 1.6 | 3.2 | 0.00 | 0.25 | 0.25 | 39 | 1018.3 |
| 20260502024004 | 5 | 340 | 1.6 | 3.2 | 0.00 | 0.25 | 0.25 | 38 | 1018.1 |
| 20260502023504 | 6 | 340 | 3.2 | 4.8 | 0.00 | 0.25 | 0.25 | 39 | 1017.9 |
| 20260502023004 | 6 | 340 | 1.6 | 3.2 | 0.00 | 0.25 | 0.25 | 38 | 1017.8 |
| 20260502022504 | 6 | 340 | 1.6 | 4.8 | 0.00 | 0.25 | 0.25 | 35 | 1017.7 |
| 20260502022004 | 6 | 321 | 3.2 | 4.8 | 0.00 | 0.25 | 0.25 | 36 | 1017.7 |
| 20260502021504 | 6 | 297 | 3.2 | 8.0 | 0.00 | 0.25 | 0.25 | 33 | 1017.6 |
| 20260502021003 | 7 | 303 | 6.4 | 8.0 | 0.00 | 0.25 | 0.25 | 33 | 1017.6 |
| 20260502020503 | 7 | 325 | 4.8 | 9.7 | 0.00 | 0.25 | 0.25 | 32 | 1017.6 |
| 20260502020004 | 7 | 330 | 4.8 | 11.3 | 0.00 | 0.25 | 0.25 | 31 | 1017.6 |
| 20260502015503 | 7 | 350 | 9.7 | 16.1 | 0.00 | 0.25 | 0.25 | 30 | 1017.4 |
| 20260502015004 | 7 | 355 | 4.8 | 9.7 | 0.00 | 0.25 | 0.25 | 31 | 1017.3 |
| 20260502014503 | 8 | 346 | 3.2 | 9.7 | 0.00 | 0.25 | 0.25 | 30 | 1017.2 |
| 20260502014004 | 8 | 355 | 8.0 | 12.9 | 0.00 | 0.25 | 0.25 | 29 | 1017.1 |
| 20260502013504 | 8 | 343 | 9.7 | 14.5 | 0.00 | 0.25 | 0.25 | 29 | 1017.0 |
| 20260502013004 | 8 | 341 | 8.0 | 11.3 | 0.00 | 0.25 | 0.25 | 28 | 1017.0 |
| 20260502012504 | 9 | 341 | 4.8 | 12.9 | 0.00 | 0.25 | 0.25 | 28 | 1017.0 |
| 20260502012003 | 9 | 340 | 8.0 | 16.1 | 0.00 | 0.25 | 0.25 | 27 | 1017.0 |
| 20260502011503 | 10 | 340 | 0.0 | 4.8 | 0.00 | 0.25 | 0.25 | 25 | 1017.0 |
| 20260502011004 | 10 | 341 | 3.2 | 9.7 | 0.00 | 0.25 | 0.25 | 25 | 1016.8 |
| 20260502010003 | 10 | 16 | 4.8 | 14.5 | 0.00 | 0.25 | 0.25 | 25 | 1016.7 |
| 20260502005504 | 10 | 353 | 12.9 | 19.3 | 0.00 | 0.25 | 0.25 | 23 | 1016.7 |
| 20260502005004 | 10 | 342 | 16.1 | 22.5 | 0.00 | 0.25 | 0.25 | 23 | 1017.0 |
| 20260502004504 | 10 | 344 | 8.0 | 19.3 | 0.00 | 0.25 | 0.25 | 25 | 1017.0 |
| 20260502004004 | 10 | 14 | 8.0 | 19.3 | 0.00 | 0.25 | 0.25 | 26 | 1017.0 |
| 20260502003504 | 10 | 46 | 8.0 | 19.3 | 0.00 | 0.25 | 0.25 | 26 | 1017.0 |
| 20260502002504 | 10 | 104 | 9.7 | 27.4 | 0.00 | 0.25 | 0.25 | 24 | 1017.0 |
| 20260502002003 | 10 | 61 | 9.7 | 22.5 | 0.00 | 0.25 | 0.25 | 25 | 1016.9 |
| 20260502001504 | 10 | 46 | 17.7 | 22.5 | 0.00 | 0.25 | 0.25 | 26 | 1016.9 |
| 20260502001003 | 10 | 40 | 11.3 | 22.5 | 0.00 | 0.25 | 0.25 | 26 | 1016.8 |
| 20260502000504 | 10 | 29 | 19.3 | 27.4 | 0.00 | 0.25 | 0.25 | 26 | 1016.8 |
| 20260501235003 | 10 | 348 | 4.8 | 9.7 | 0.00 | 0.25 | 0.25 | 27 | 1016.7 |
| 20260501234004 | 9 | 316 | 8.0 | 16.1 | 0.00 | 0.25 | 0.25 | 27 | 1016.7 |
| 20260501233504 | 9 | 32 | 11.3 | 19.3 | 0.00 | 0.25 | 0.25 | 26 | 1016.8 |
| 20260501233004 | 9 | 28 | 8.0 | 16.1 | 0.00 | 0.25 | 0.25 | 26 | 1016.8 |
| 20260501232004 | 9 | 20 | 8.0 | 24.1 | 0.00 | 0.25 | 0.25 | 26 | 1016.7 |
| 20260501231504 | 9 | 18 | 9.7 | 24.1 | 0.00 | 0.25 | 0.25 | 27 | 1016.6 |
| 20260501231003 | 9 | 7 | 11.3 | 20.9 | 0.00 | 0.25 | 0.25 | 28 | 1016.6 |
| 20260501230503 | 9 | 53 | 8.0 | 19.3 | 0.00 | 0.25 | 0.25 | 25 | 1016.5 |
| 20260501230004 | 9 | 91 | 9.7 | 16.1 | 0.00 | 0.25 | 0.25 | 26 | 1016.5 |
| 20260501225504 | 10 | 84 | 3.2 | 16.1 | 0.00 | 0.25 | 0.25 | 25 | 1016.6 |
| 20260501225004 | 10 | 42 | 4.8 | 14.5 | 0.00 | 0.25 | 0.25 | 24 | 1016.9 |
| 20260501224004 | 10 | 51 | 1.6 | 9.7 | 0.00 | 0.25 | 0.25 | 26 | 1016.9 |
| 20260501223504 | 10 | 45 | 0.0 | 16.1 | 0.00 | 0.25 | 0.25 | 22 | 1017.0 |
| 20260501223003 | 10 | 43 | 9.7 | 19.3 | 0.00 | 0.25 | 0.25 | 25 | 1016.9 |
| 20260501222003 | 10 | 348 | 8.0 | 19.3 | 0.00 | 0.25 | 0.25 | 25 | 1016.9 |
| 20260501221504 | 10 | 341 | 3.2 | 16.1 | 0.00 | 0.25 | 0.25 | 28 | 1017.1 |
| 20260501220504 | 9 | 40 | 9.7 | 19.3 | 0.00 | 0.25 | 0.25 | 26 | 1017.1 |
| 20260501220004 | 9 | 35 | 4.8 | 9.7 | 0.00 | 0.25 | 0.25 | 26 | 1017.2 |
| 20260501215503 | 10 | 33 | 6.4 | 19.3 | 0.00 | 0.25 | 0.25 | 27 | 1017.3 |
| 20260501214504 | 9 | 36 | 12.9 | 19.3 | 0.00 | 0.25 | 0.25 | 29 | 1017.7 |
| 20260501214004 | 9 | 87 | 4.8 | 11.3 | 0.00 | 0.25 | 0.25 | 28 | 1017.8 |
| 20260501213004 | 8 | 71 | 8.0 | 16.1 | 0.00 | 0.25 | 0.25 | 28 | 1017.9 |
| 20260501212503 | 8 | 92 | 3.2 | 9.7 | 0.00 | 0.25 | 0.25 | 26 | 1018.0 |
| 20260501212003 | 9 | 105 | 6.4 | 14.5 | 0.00 | 0.25 | 0.25 | 26 | 1018.0 |
| 20260501211003 | 9 | 38 | 9.7 | 16.1 | 0.00 | 0.25 | 0.25 | 30 | 1018.1 |
| 20260501210504 | 9 | 292 | 6.4 | 14.5 | 0.00 | 0.25 | 0.25 | 28 | 1018.1 |
| 20260501205503 | 9 | 98 | 4.8 | 16.1 | 0.00 | 0.25 | 0.25 | 29 | 1018.1 |
| 20260501205004 | 9 | 117 | 3.2 | 19.3 | 0.00 | 0.25 | 0.25 | 28 | 1018.1 |
| 20260501204504 | 9 | 96 | 9.7 | 22.5 | 0.00 | 0.28 | 0.25 | 29 | 1018.1 |
| 20260501204003 | 9 | 69 | 12.9 | 19.3 | 0.00 | 0.28 | 0.25 | 30 | 1018.1 |
| 20260501203504 | 10 | 44 | 12.9 | 20.9 | 0.00 | 0.28 | 0.25 | 29 | 1018.1 |
| 20260501203004 | 10 | 38 | 16.1 | 24.1 | 0.00 | 0.28 | 0.25 | 31 | 1018.1 |
| 20260501202504 | 10 | 64 | 6.4 | 16.1 | 0.00 | 0.28 | 0.25 | 28 | 1018.1 |
| 20260501201503 | 10 | 134 | 3.2 | 4.8 | 0.00 | 0.28 | 0.25 | 27 | 1018.0 |
| 20260501201004 | 10 | 92 | 9.7 | 19.3 | 0.00 | 0.28 | 0.25 | 29 | 1018.1 |
| 20260501200504 | 10 | 128 | 8.0 | 19.3 | 0.00 | 0.28 | 0.25 | 30 | 1018.0 |